San Martin, CA

12:00 PM PDT on June 26, 2017 (GMT -0700)
San Martin

Weather History for KE16 - February, 2014

Change the Weather History Date:

Friday, February 28, 2014

  Actual Average (KWVI) Record (KWVI)
Temperature  
Mean Temperature 56 °F -  
Max Temperature 60 °F 64 °F 71 °F (2002)
Min Temperature 51 °F 43 °F 34 °F (2011)
Degree Days  
Heating Degree Days 10    
Growing Degree Days 6 (Base 50)    
Moisture  
Dew Point 51 °F    
Average Humidity 85    
Maximum Humidity 100    
Minimum Humidity 48    
Precipitation  
Precipitation 1.79 in - - ()
Sea Level Pressure  
Sea Level Pressure 29.48 in    
Wind  
Wind Speed 9 mph (SSE)    
Max Wind Speed 24 mph    
Max Gust Speed 34 mph    
Visibility 8 miles    
Events Rain    
Averages and records for this station are not official NWS values.
T = Trace of Precipitation, MM = Missing Value Source: NWS Daily Summary

Daily Weather History Graph

Daily Weather History Graph

Search for Another Location

Airport or City:

Trip Planner

Search our weather history database for the weather conditions in past years. The results will help you decide how hot, cold, wet, or windy it might be!

Date:

Astronomy

Feb. 28, 2014 Rise Set
Actual Time 6:38 AM PST 5:59 PM PST
Civil Twilight 6:12 AM PST 6:25 PM PST
Nautical Twilight 5:42 AM PST 6:55 PM PST
Astronomical Twilight 5:12 AM PST 7:26 PM PST
Moon 5:56 AM PST (2/28) 5:42 PM PST (2/28)
Length of Visible Light 12h 13m
Length of Day
11h 21m
Waning Crescent, 0% of the Moon is Illuminated
Feb 28
Waning Crescent
Mar 1
New
Mar 8
First Quarter
Mar 16
Full
Mar 23
Last Quarter

Hourly Weather History & Observations

Time (PST) Temp. Dew Point Humidity Pressure Visibility Wind Dir Wind Speed Gust Speed Precip Events Conditions
12:15 AM 60.8 °F 41.0 °F 48% 29.57 in 7.0 mi East 9.2 mph 24.2 mph N/A Rain Light Rain
12:35 AM 59.0 °F 44.6 °F 59% 29.57 in 7.0 mi East 12.7 mph 17.3 mph 0.01 in Rain Light Rain
12:50 AM 55.4 °F 46.4 °F 72% 29.57 in 3.0 mi ESE 13.8 mph 20.7 mph 0.09 in Rain Rain
1:10 AM 55.4 °F 48.2 °F 77% 29.55 in 3.0 mi SE 13.8 mph 27.6 mph N/A Rain Rain
1:35 AM 55.4 °F 50.0 °F 82% 29.52 in 5.0 mi SE 6.9 mph 16.1 mph 0.05 in Rain Light Rain
1:55 AM 55.4 °F 51.8 °F 88% 29.50 in 4.0 mi ESE 10.4 mph - 0.09 in Rain Light Rain
2:15 AM 55.4 °F 51.8 °F 88% 29.49 in 5.0 mi SE 6.9 mph - 0.01 in Rain Light Rain
2:35 AM 55.4 °F 51.8 °F 88% 29.46 in 3.0 mi ESE 16.1 mph 23.0 mph 0.03 in Rain Light Rain
2:55 AM 55.4 °F 53.6 °F 94% 29.45 in 2.5 mi SE 13.8 mph 19.6 mph 0.10 in Rain Light Rain
3:15 AM 55.4 °F 53.6 °F 94% 29.45 in 2.5 mi SSE 6.9 mph - 0.06 in Rain Rain
3:35 AM 55.4 °F 53.6 °F 94% 29.47 in 3.0 mi WSW 17.3 mph 27.6 mph 0.24 in Rain Rain
3:50 AM 55.4 °F 53.6 °F 94% 29.45 in 2.0 mi SSW 4.6 mph 20.7 mph 0.76 in Rain Rain
4:15 AM 53.6 °F 53.6 °F 100% 29.43 in 2.0 mi ENE 6.9 mph - 0.02 in Rain Light Rain
4:35 AM 53.6 °F 53.6 °F 100% 29.45 in 1.5 mi ESE 4.6 mph - 0.18 in Rain Heavy Rain
4:50 AM 53.6 °F 53.6 °F 100% 29.44 in 2.5 mi NE 4.6 mph - 0.32 in Rain Rain
5:15 AM 53.6 °F 53.6 °F 100% 29.41 in 3.0 mi ESE 4.6 mph - 0.02 in Rain Light Rain
5:30 AM 53.6 °F 53.6 °F 100% 29.41 in 9.0 mi WSW 6.9 mph - 0.02 in Rain Light Rain
5:55 AM 55.4 °F 55.4 °F 100% 29.45 in 1.8 mi SW 11.5 mph - 0.35 in Rain Rain
6:10 AM 55.4 °F 55.4 °F 100% 29.44 in 10.0 mi SW 6.9 mph - N/A   Overcast
6:35 AM 57.2 °F 53.6 °F 88% 29.44 in 4.0 mi SW 11.5 mph 17.3 mph 0.02 in Rain Rain
6:50 AM 55.4 °F 53.6 °F 94% 29.44 in 2.5 mi SW 9.2 mph 19.6 mph 0.03 in Rain Light Rain
7:10 AM 55.4 °F 51.8 °F 88% 29.43 in 3.0 mi SW 24.2 mph 34.5 mph N/A Rain Light Rain
7:30 AM 55.4 °F 51.8 °F 88% 29.45 in 8.0 mi SW 19.6 mph 28.8 mph 0.01 in Rain Light Rain
7:50 AM 55.4 °F 51.8 °F 88% 29.47 in 2.5 mi South 8.1 mph 19.6 mph 0.05 in Rain Light Rain
8:15 AM 55.4 °F 50.0 °F 82% 29.48 in 9.0 mi Calm Calm - N/A Rain Light Rain
8:35 AM 55.4 °F 51.8 °F 88% 29.48 in 10.0 mi ENE 4.6 mph - 0.02 in   Overcast
8:55 AM 55.4 °F 51.8 °F 88% 29.49 in 10.0 mi ESE 9.2 mph - 0.02 in   Overcast
9:15 AM 57.2 °F 50.0 °F 77% 29.49 in 10.0 mi SSE 4.6 mph - N/A   Overcast
9:35 AM 57.2 °F 50.0 °F 77% 29.48 in 10.0 mi South 4.6 mph - N/A   Overcast
9:55 AM 57.2 °F 50.0 °F 77% 29.48 in 10.0 mi WSW 3.5 mph - N/A   Overcast
10:15 AM 55.4 °F 50.0 °F 82% 29.48 in 10.0 mi Calm Calm - N/A   Overcast
10:35 AM 55.4 °F 48.2 °F 77% 29.48 in 10.0 mi ENE 4.6 mph - N/A   Overcast
10:55 AM 53.6 °F 51.8 °F 94% 29.48 in 1.2 mi ESE 4.6 mph - 0.05 in Rain Heavy Rain
11:15 AM 53.6 °F 53.6 °F 100% 29.48 in 5.0 mi ENE 4.6 mph - 0.02 in Rain Light Rain
11:35 AM 53.6 °F 51.8 °F 94% 29.47 in 10.0 mi Calm Calm - 0.02 in   Scattered Clouds
11:55 AM 55.4 °F 51.8 °F 88% 29.46 in 9.0 mi WSW 4.6 mph - 0.02 in Rain Light Rain
12:15 PM 55.4 °F 53.6 °F 94% 29.46 in 5.0 mi SSW 3.5 mph - N/A Rain Light Rain
12:35 PM 55.4 °F 53.6 °F 94% 29.45 in 10.0 mi South 6.9 mph - N/A Rain Light Rain
12:50 PM 55.4 °F 53.6 °F 94% 29.45 in 10.0 mi South 8.1 mph - N/A   Mostly Cloudy
1:15 PM 57.2 °F 55.4 °F 94% 29.42 in 10.0 mi SSE 8.1 mph - N/A   Mostly Cloudy
1:35 PM 59.0 °F 53.6 °F 82% 29.43 in 10.0 mi SSE 15.0 mph 18.4 mph N/A   Mostly Cloudy
1:50 PM 57.2 °F 50.0 °F 77% 29.44 in 10.0 mi South 15.0 mph 25.3 mph N/A   Mostly Cloudy
2:15 PM 55.4 °F 48.2 °F 77% 29.44 in 10.0 mi South 8.1 mph 19.6 mph N/A   Mostly Cloudy
2:35 PM 55.4 °F 50.0 °F 82% 29.44 in 10.0 mi SSE 8.1 mph - N/A   Overcast
2:55 PM 55.4 °F 48.2 °F 77% 29.44 in 10.0 mi SSE 4.6 mph - N/A   Overcast
3:15 PM 57.2 °F 50.0 °F 77% 29.44 in 10.0 mi South 8.1 mph - N/A Rain Light Rain
3:35 PM 57.2 °F 48.2 °F 72% 29.44 in 10.0 mi South 16.1 mph - N/A   Overcast
3:55 PM 55.4 °F 48.2 °F 77% 29.45 in 8.0 mi SSW 10.4 mph 18.4 mph N/A Rain Light Rain
4:15 PM 55.4 °F 50.0 °F 82% 29.46 in 8.0 mi SSE 11.5 mph 17.3 mph N/A Rain Light Rain
4:30 PM 55.4 °F 50.0 °F 82% 29.45 in 10.0 mi SSE 10.4 mph - N/A   Overcast
4:55 PM 55.4 °F 50.0 °F 82% 29.46 in 10.0 mi SE 6.9 mph - N/A   Overcast
5:10 PM 55.4 °F 50.0 °F 82% 29.47 in 10.0 mi SE 6.9 mph - N/A   Overcast
5:30 PM 55.4 °F 51.8 °F 88% 29.47 in 10.0 mi East 5.8 mph - N/A   Overcast
5:50 PM 55.4 °F 50.0 °F 82% 29.47 in 10.0 mi East 5.8 mph - N/A   Overcast
6:15 PM 55.4 °F 50.0 °F 82% 29.48 in 10.0 mi East 3.5 mph - N/A   Overcast
6:35 PM 55.4 °F 50.0 °F 82% 29.48 in 10.0 mi SE 4.6 mph - N/A   Overcast
6:50 PM 53.6 °F 50.0 °F 88% 29.48 in 10.0 mi South 4.6 mph - N/A   Overcast
7:15 PM 53.6 °F 50.0 °F 88% 29.48 in 10.0 mi Calm Calm - N/A   Mostly Cloudy
7:35 PM 53.6 °F 50.0 °F 88% 29.50 in 10.0 mi South 3.5 mph - N/A   Overcast
7:55 PM 53.6 °F 50.0 °F 88% 29.50 in 10.0 mi ESE 3.5 mph - N/A   Overcast
8:15 PM 51.8 °F 50.0 °F 94% 29.50 in 10.0 mi SE 4.6 mph - N/A   Overcast
8:35 PM 53.6 °F 50.0 °F 88% 29.51 in 10.0 mi SSE 4.6 mph - N/A   Overcast
8:55 PM 53.6 °F 48.2 °F 82% 29.51 in 10.0 mi SSE 6.9 mph - N/A   Overcast
9:15 PM 53.6 °F 48.2 °F 82% 29.52 in 10.0 mi SE 5.8 mph - N/A   Overcast
9:35 PM 53.6 °F 48.2 °F 82% 29.52 in 10.0 mi SE 10.4 mph - N/A   Overcast
9:55 PM 55.4 °F 48.2 °F 77% 29.52 in 10.0 mi SE 9.2 mph - N/A   Overcast
10:15 PM 55.4 °F 46.4 °F 72% 29.52 in 10.0 mi SE 10.4 mph - N/A   Overcast
10:35 PM 55.4 °F 46.4 °F 72% 29.53 in 10.0 mi SE 11.5 mph - N/A   Overcast
10:55 PM 53.6 °F 48.2 °F 82% 29.53 in 8.0 mi ESE 9.2 mph - N/A Rain Light Rain
11:15 PM 53.6 °F 48.2 °F 82% 29.53 in 10.0 mi SE 10.4 mph - N/A   Overcast
11:35 PM 55.4 °F 48.2 °F 77% 29.52 in 10.0 mi SE 10.4 mph - N/A   Overcast
11:55 PM 55.4 °F 48.2 °F 77% 29.52 in 10.0 mi SE 10.4 mph - N/A Rain Light Rain